Meteo pe oră la Aarschot

Astăzi, 15 Iunie, Marţi

Timp Temperatura Precipitaţii Vânt Presiune Umiditate
00:00 +16°C° 0 mm 2 m/s 761 mmHg 85%
01:00 +16°C° 0 mm 2 m/s 761 mmHg 88%
02:00 +15°C° 0 mm 2 m/s 761 mmHg 90%
03:00 +15°C° 0 mm 2 m/s 761 mmHg 93%
04:00 +16°C° 0 mm 2 m/s 761 mmHg 90%
05:00 +17°C° 0 mm 2 m/s 761 mmHg 86%
06:00 +18°C° 0 mm 3 m/s 761 mmHg 82%
07:00 +19°C° 0 mm 3 m/s 761 mmHg 76%
08:00 +20°C° 0 mm 3 m/s 761 mmHg 70%
09:00 +22°C° 0 mm 3 m/s 761 mmHg 64%
10:00 +24°C° 0 mm 3 m/s 761 mmHg 61%
11:00 +25°C° 0 mm 3 m/s 761 mmHg 58%
12:00 +26°C° 0 mm 3 m/s 761 mmHg 55%
13:00 +26°C° 0 mm 3 m/s 760 mmHg 54%
14:00 +26°C° 0 mm 3 m/s 760 mmHg 54%
15:00 +26°C° 0 mm 3 m/s 760 mmHg 54%
16:00 +25°C° 0 mm 3 m/s 760 mmHg 57%
17:00 +24°C° 0 mm 3 m/s 759 mmHg 61%
18:00 +22°C° 0 mm 3 m/s 759 mmHg 65%
19:00 +21°C° 0 mm 3 m/s 759 mmHg 68%
20:00 +19°C° 0 mm 3 m/s 759 mmHg 72%
21:00 +18°C° 0 mm 3 m/s 759 mmHg 75%
22:00 +17°C° 0 mm 2 m/s 759 mmHg 77%
23:00 +17°C° 0 mm 2 m/s 759 mmHg 79%

Mâine, 16 Iunie, Miercuri

Timp Temperatura Precipitaţii Vânt Presiune Umiditate
00:00 +16°C° 0 mm 2 m/s 758 mmHg 80%
01:00 +16°C° 0 mm 2 m/s 758 mmHg 83%
02:00 +16°C° 0 mm 2 m/s 758 mmHg 85%
03:00 +15°C° 0 mm 1 m/s 758 mmHg 87%
04:00 +18°C° 0 mm 1 m/s 757 mmHg 83%
05:00 +19°C° 0 mm 1 m/s 757 mmHg 80%
06:00 +20°C° 0 mm 1 m/s 757 mmHg 76%
07:00 +22°C° 0 mm 1 m/s 757 mmHg 71%
08:00 +24°C° 0 mm 1 m/s 757 mmHg 66%
09:00 +26°C° 0 mm 1 m/s 756 mmHg 61%
10:00 +27°C° 0 mm 1 m/s 756 mmHg 58%
11:00 +28°C° 0 mm 2 m/s 756 mmHg 54%
12:00 +29°C° 0 mm 2 m/s 756 mmHg 50%
13:00 +30°C° 0 mm 2 m/s 755 mmHg 48%
14:00 +30°C° 0 mm 2 m/s 755 mmHg 46%
15:00 +31°C° 0 mm 2 m/s 755 mmHg 44%
16:00 +30°C° 0 mm 1 m/s 755 mmHg 49%
17:00 +30°C° 0 mm 1 m/s 754 mmHg 54%
18:00 +29°C° 0 mm 1 m/s 754 mmHg 59%
19:00 +27°C° 0 mm 1 m/s 754 mmHg 61%
20:00 +26°C° 0 mm 1 m/s 754 mmHg 64%
21:00 +24°C° 0 mm 1 m/s 755 mmHg 66%
22:00 +23°C° 0 mm 1 m/s 755 mmHg 69%
23:00 +23°C° 0 mm 1 m/s 754 mmHg 72%

Poimâine, 17 Iunie, Joi

Timp Temperatura Precipitaţii Vânt Presiune Umiditate
00:00 +21°C° 0 mm 2 m/s 754 mmHg 76%
01:00 +20°C° 0 mm 2 m/s 754 mmHg 78%
02:00 +20°C° 0 mm 2 m/s 754 mmHg 79%
03:00 +20°C° 0 mm 2 m/s 754 mmHg 81%
04:00 +21°C° 0 mm 2 m/s 754 mmHg 78%
05:00 +23°C° 0 mm 2 m/s 754 mmHg 74%
06:00 +24°C° 0 mm 2 m/s 754 mmHg 71%
07:00 +26°C° 0 mm 3 m/s 754 mmHg 66%
08:00 +28°C° 0 mm 3 m/s 753 mmHg 61%
09:00 +30°C° 0 mm 3 m/s 753 mmHg 56%
10:00 +30°C° 0 mm 4 m/s 753 mmHg 55%
11:00 +32°C° 0 mm 4 m/s 753 mmHg 53%
12:00 +33°C° 0 mm 5 m/s 753 mmHg 51%
13:00 +33°C° 0 mm 5 m/s 753 mmHg 51%
14:00 +33°C° 0 mm 5 m/s 753 mmHg 51%
15:00 +33°C° 0 mm 5 m/s 753 mmHg 51%
16:00 +32°C° 0.1 mm 4 m/s 753 mmHg 58%
17:00 +29°C° 0.1 mm 4 m/s 753 mmHg 64%
18:00 +28°C° 0.1 mm 3 m/s 753 mmHg 71%
19:00 +26°C° 0.1 mm 3 m/s 753 mmHg 78%
20:00 +24°C° 0.1 mm 2 m/s 754 mmHg 85%
21:00 +21°C° 0.1 mm 2 m/s 754 mmHg 93%
22:00 +21°C° 0 mm 2 m/s 754 mmHg 94%
23:00 +20°C° 0 mm 2 m/s 754 mmHg 95%

18 Iunie, Vineri

Timp Temperatura Precipitaţii Vânt Presiune Umiditate
00:00 +20°C° 0 mm 1 m/s 754 mmHg 96%
01:00 +20°C° 0.3 mm 1 m/s 754 mmHg 96%
02:00 +19°C° 0.3 mm 2 m/s 754 mmHg 96%
03:00 +19°C° 0.3 mm 2 m/s 754 mmHg 96%
04:00 +19°C° 0.1 mm 2 m/s 754 mmHg 95%
05:00 +19°C° 0.1 mm 2 m/s 754 mmHg 94%
06:00 +19°C° 0.1 mm 2 m/s 754 mmHg 93%
07:00 +20°C° 0.2 mm 1 m/s 755 mmHg 91%
08:00 +21°C° 0.2 mm 1 m/s 755 mmHg 89%
09:00 +21°C° 0.2 mm 1 m/s 755 mmHg 87%
10:00 +23°C° 0.6 mm 2 m/s 755 mmHg 81%
11:00 +25°C° 0.6 mm 3 m/s 754 mmHg 75%
12:00 +27°C° 0.6 mm 4 m/s 754 mmHg 69%
13:00 +26°C° 1.3 mm 5 m/s 754 mmHg 71%
14:00 +26°C° 1.3 mm 5 m/s 754 mmHg 73%
15:00 +24°C° 1.3 mm 6 m/s 754 mmHg 75%
16:00 +23°C° 0.9 mm 6 m/s 754 mmHg 80%
17:00 +22°C° 0.9 mm 5 m/s 754 mmHg 84%
18:00 +21°C° 0.9 mm 5 m/s 754 mmHg 88%
19:00 +21°C° 0.4 mm 5 m/s 754 mmHg 90%
20:00 +20°C° 0.4 mm 4 m/s 754 mmHg 93%
21:00 +19°C° 0.4 mm 4 m/s 755 mmHg 95%
22:00 +19°C° 0.3 mm 4 m/s 755 mmHg 95%
23:00 +18°C° 0.3 mm 4 m/s 756 mmHg 95%

19 Iunie, Sâmbătă

Timp Temperatura Precipitaţii Vânt Presiune Umiditate
00:00 +17°C° 0.3 mm 5 m/s 756 mmHg 94%
01:00 +17°C° 0 mm 4 m/s 756 mmHg 95%
02:00 +17°C° 0 mm 4 m/s 756 mmHg 96%
03:00 +16°C° 0 mm 3 m/s 757 mmHg 96%
04:00 +17°C° 0 mm 4 m/s 757 mmHg 94%
05:00 +17°C° 0 mm 4 m/s 757 mmHg 92%
06:00 +18°C° 0 mm 4 m/s 758 mmHg 90%
07:00 +18°C° 0 mm 4 m/s 758 mmHg 86%
08:00 +18°C° 0 mm 3 m/s 758 mmHg 83%
09:00 +19°C° 0 mm 3 m/s 758 mmHg 79%
10:00 +20°C° 0 mm 2 m/s 758 mmHg 76%
11:00 +20°C° 0 mm 2 m/s 758 mmHg 73%
12:00 +21°C° 0 mm 2 m/s 758 mmHg 70%
13:00 +23°C° 0 mm 2 m/s 758 mmHg 67%
14:00 +24°C° 0 mm 1 m/s 758 mmHg 63%
15:00 +26°C° 0 mm 1 m/s 757 mmHg 59%
16:00 +25°C° 0 mm 1 m/s 757 mmHg 62%
17:00 +25°C° 0 mm 2 m/s 757 mmHg 66%
18:00 +25°C° 0 mm 2 m/s 756 mmHg 69%
19:00 +22°C° 0.2 mm 3 m/s 756 mmHg 76%
20:00 +20°C° 0.2 mm 3 m/s 756 mmHg 84%
21:00 +19°C° 0.2 mm 4 m/s 755 mmHg 92%
22:00 +19°C° 3.4 mm 4 m/s 755 mmHg 94%
23:00 +19°C° 3.4 mm 4 m/s 755 mmHg 96%

20 Iunie, Duminică

Timp Temperatura Precipitaţii Vânt Presiune Umiditate
00:00 +19°C° 3.4 mm 4 m/s 755 mmHg 98%
01:00 +18°C° 0 mm 3 m/s 755 mmHg 98%
02:00 +18°C° 0 mm 2 m/s 754 mmHg 97%
03:00 +18°C° 0 mm 2 m/s 754 mmHg 97%
04:00 +19°C° 0 mm 2 m/s 754 mmHg 95%
05:00 +19°C° 0 mm 2 m/s 754 mmHg 93%
06:00 +20°C° 0 mm 2 m/s 754 mmHg 91%
07:00 +21°C° 0 mm 3 m/s 754 mmHg 84%
08:00 +23°C° 0 mm 4 m/s 755 mmHg 77%
09:00 +26°C° 0 mm 5 m/s 755 mmHg 69%
10:00 +27°C° 0 mm 5 m/s 755 mmHg 67%
11:00 +27°C° 0 mm 5 m/s 755 mmHg 64%
12:00 +28°C° 0 mm 5 m/s 755 mmHg 62%
13:00 +28°C° 0.2 mm 5 m/s 755 mmHg 66%
14:00 +27°C° 0.2 mm 5 m/s 755 mmHg 71%
15:00 +26°C° 0.2 mm 5 m/s 755 mmHg 76%
16:00 +26°C° 0.1 mm 4 m/s 755 mmHg 75%
17:00 +26°C° 0.1 mm 4 m/s 755 mmHg 75%
18:00 +25°C° 0.1 mm 4 m/s 755 mmHg 74%
19:00 +24°C° 0 mm 3 m/s 755 mmHg 79%
20:00 +22°C° 0 mm 3 m/s 755 mmHg 83%
21:00 +21°C° 0 mm 3 m/s 755 mmHg 87%
22:00 +20°C° 1 mm 2 m/s 755 mmHg 90%
23:00 +19°C° 1 mm 2 m/s 755 mmHg 94%
Arată mai mult

Formular de consimțământ

Meteoprog și furnizorii noștri de servicii pot stoca și accesa date personale, precum cookies, identificatori de dispozitiv sau alte tehnologii similare pe dispozitivul dumneavoastră și procesa astfel de date pentru a personaliza conținutul și reclamele, dar și pentru a oferi caracteristici de social media și pentru a analiza traficul.

  • Stocarea și/sau accesarea informațiilor pe dispozitivul dumneavoastră

    Cookies, identificatori de dispozitiv sau alte informații pot fi stocate sau accesate pe dispozitiv în scopurile indicate mai sus.

  • Reclame și conținut personalizat, evaluarea reclamelor și a conținutului, informații despre audiențe și dezvoltarea produselor

    Reclamele și conținutul pot fi personalizate pe baza unui profil. Pot fi adăugate date suplimentare pentru a personaliza mai bine reclamele și conținutul. Performanța reclamelor și conținutului poate fi măsurată. Pot fi obținute informații despre utilizatorii care au văzut reclamele și conținutul. Aceste date pot fi utilizate pentru a dezvolta sau îmbunătăți experiența utilizatorilor, sistemele și software-ul.

Dând clic pe ‘Sunt de acord’, permiteți utilizarea cookie-urilor menționate, a identificatorilor de dispozitiv, balizelor web sau altor tehnologii similare. Setările pot fi modificate din browser-ul dispozitivului dumneavoastră.

În anumite scopuri, interesele legitime pot prima asupra consimțământului. Puteți citi mai multe informații în acest sens în Politica privind Confidențialitatea Datelor și Cookie.